SL-8 DEB

Satellite information

Favourite Embed

Satellite Type and Status

DEBRISIN ORBIT

Key statistics

Satellite SL-8 DEB at a glance.

Uptime

8257

Days in orbit

Revolutions

≈ 14.8

Per day

Orbit

SSO

Sun Synchronous Orbit

Inclination

98.3

Latest

Satellite identification and parameters

Extended collection of information and parameters for SL-8 DEB.

Object identification

Identified? True

Debris? True

Object name: SL-8 DEB

International designator: 2002-054E

Object number (NORAD): 27769

Object ID (CCSDS): 27769

Country: COMMONWEALTH OF INDEPENDENT STATES (CIS)

Current information (Y/N): Y

RCS size: SMALL

Orbital parameters

Period: 97.348 minutes

Inclination: 98.2726 deg

SMA: 7009.882 km

Apoapsis: 652.812 km

Periapsis: 610.681 km

RAAN: 44.9083 deg

Eccentricy: 0.0030051

Argument of periapsis: 100.7039 deg

Mean anomaly: 259.7557 deg

Mean motion: 14.79233443 rev/day

Mean motion (dot): 0.00002759 rev/day2

B* drag term: 0.00037616 1/REarth

Two-line elements (TLE)

Creation date: July 5, 2025, 5:45 p.m.

Reference frame: TEME

Reference center: EARTH

Epoch: July 5, 2025, 12:54 p.m. UTC

TLE line 0: 0 SL-8 DEB

TLE line 1: 1 27769U 02054E 25186.53782515 .00002759 00000-0 37616-3 0 9999

TLE line 2: 2 27769 98.2726 44.9083 0030051 100.7039 259.7557 14.79233443206349

Live tracking on map

Real-time ground track for satellite SL-8 DEB.

In-orbit conjunctions

A list of the most updated potential collisions computed for object SL-8 DEB.

Target Orbit TCA Probability of collision Miss distance Type
ERS 1 DEB SSO 2024-11-09 16:42:38 0.00122157 269.0 (m) DEBRIS

Associated space launch

ALSAT 1 was an Algerian imaging minisatellite. The 90-kg satellite was the first part of an international Disaster Monitoring System (DMS) for alerting natural/man-made disasters.

SL-8 DEB was lifted into orbit during the mission ‘Kosmos-3M | AlSat-1’, on board a Kosmos-3M space rocket.

The launch took place on Nov. 28, 2002, 6:07 a.m. from 132/1 (132L).

For more information about the launch, click the button.

Launch to space Kosmos-3M | AlSat-1
Kosmos-3M | AlSat-1

Agency: N/A

Status: Launch Successful

Launch date: Nov. 28, 2002, 6:07 a.m. UTC

Rocket: Kosmos-3M

Launch pad: 132/1 (132L)

Location: Plesetsk Cosmodrome, Russian Federation

...

Latest news about this satellite

There are no fresh news available about this satellite. Check back as we update our databases every day.


Newsletter sign-up

Weekly statistics, charts and insights to help you stay on top of the space industry.